Regional Weather Roundup
Issued by NWS Wakefield, VA

Home | Current Version | Previous Version | Graphics & Text | Print | Product List | Glossary On
Versions: 1 2 3 4 5 6 7 8 9 10 11 12 13 14 15 16 17 18 19 20 21 22 23 24 25 26 27 28 29 30 31 32 33 34 35 36 37 38 39 40 41 42 43 44 45 46 47 48 49 50
626
ASUS41 KAKQ 210715
RWRAKQ

REGIONAL WEATHER ROUNDUP
NATIONAL WEATHER SERVICE WAKEFIELD VA
300 AM EDT MON AUG 21 2017

Note: "fair" indicates few or no clouds below 12,000 feet with no
significant weather and/or obstructions to visibility. * = Denotes
station may not report precipitation (e.g., rain,snow,etc.),
thunder or fog.

VAZ042-051-052>054-056-210800-
NORTHERN VIRGINIA

CITY           SKY/WX    TMP DP  RH WIND       PRES   REMARKS
WASH NATIONAL  CLOUDY    76  72  87 CALM      30.19S
DULLES         PTCLDY    70  69  97 CALM      30.19S
FORT BELVOIR   MOCLDY    71  70  95 CALM      30.18S
QUANTICO       CLEAR     78  73  84 S6        30.18S
FREDERICKSBRG* CLEAR     71  71 100 CALM      30.17S
STAFFORD*      CLEAR     67  67 100 CALM      30.22S FOG
WARRENTON      CLEAR     69  65  88 CALM      30.19R
CULPEPER*      PTCLDY    69  69 100 CALM      30.20R FOG
MANASSAS*      PTCLDY    70  69  97 S3        30.19S
LEESBURG*      MOCLDY    70  70 100 CALM      30.20F
WINCHESTER     PTCLDY    66  64  94 CALM      30.18F
FRONT ROYAL*   CLOUDY    70  70 100 CALM      30.17F
LURAY*         SUNNY     70  70 100 CALM      30.20S
$$

VAZ048-049-060>072-079>083-210800-
CENTRAL AND SOUTH CENTRAL VIRGINIA

CITY           SKY/WX    TMP DP  RH WIND       PRES   REMARKS
RICHMOND       PTCLDY    72  71  97 E3        30.17F
CHESTERFIELD*  FAIR      73  71  93 SE3       30.18F
PETERSBURG*    CLEAR     68  68 100 CALM      30.18F FOG
HANOVER        PTCLDY    71  67  87 CALM      30.19S
TAPPAHANNOCK*  PTCLDY   N/A N/A N/A CALM      30.19S
QUINTON*       FAIR      71  71 100 CALM      30.18S
CHARLOTTSVILLE CLOUDY    73  70  90 N3        30.19S
GORDONSVILLE*  CLOUDY    70  70 100 CALM      30.19R
ORANGE*        MOCLDY    68  68 100 CALM      30.19S FOG
LOUISA*        CLEAR     66  64  94 CALM      30.19S FOG
BUMPASS*       FAIR      71  71 100 CALM      30.18S
FARMVILLE*     CLEAR     72  71  96 CALM      30.17S
CREWE*           N/A     71  66  87 CALM      30.18S
FORT PICKETT*  FAIR     N/A N/A N/A S3        30.18F
CHASE CITY*    FAIR      73  73  99 CALM      30.19R
CLARKSVILLE*   FAIR      72  72 100 CALM      30.18R
SOUTH HILL*    CLEAR     72  72 100 CALM      30.23F
LAWRENCEVILLE* FAIR      73  72  97 CALM      30.18S
EMPORIA*         N/A     70  70 100 CALM      30.18F
$$

VAZ088>098-210800-
SOUTHEAST VIRGINIA

CITY           SKY/WX    TMP DP  RH WIND       PRES   REMARKS
NORFOLK        CLEAR     76  74  93 CALM      30.18F
VIRGINIA BEACH CLEAR     72  70  93 CALM      30.17F
NORFOLK NAVAL  CLEAR     74  72  93 SE3       30.19F
WEST POINT*    CLEAR     73  71  96 CALM      30.19S
SALUDA*        FAIR      73  73 100 CALM      30.18S
NEWPORT NEWS   CLEAR     72  71  97 CALM      30.18S FOG
LANGLEY AFB    CLEAR     74  74  99 CALM      30.17F
FORT EUSTIS    CLEAR     75  73  92 CALM      30.16S
WILLIAMSBURG*  CLEAR     75  75 100 CALM      30.19S
HR EXEC AP*    FAIR      68  64  88 CALM      30.16S
FRANKLIN*      CLEAR     72  71  96 CALM      30.18S
US460-WAKEFLD  CLEAR     72  72 100 CALM      30.18S FOG
$$

VAZ020-022-025-037-045-210800-
WEST CENTRAL AND SOUTHWEST VIRGINIA

CITY           SKY/WX    TMP DP  RH WIND       PRES   REMARKS
STAUNTON*      CLEAR     67  65  95 CALM      30.23S
WAYNESBORO*    CLOUDY    70  69  94 CALM      30.23R
HOT SPRINGS VA CLOUDY    68  63  83 S8        30.35S
LYNCHBURG      PTCLDY    71  68  90 CALM      30.21S
DANVILLE       CLEAR     70  70 100 CALM      30.18S
SOUTH BOSTON*  FAIR      72  71  96 CALM      30.18S
MARTINSVILLE   CLEAR     68  67  97 CALM      30.22S FOG
ROANOKE        CLEAR     73  68  84 CALM      30.23R
BLACKSBURG     PTCLDY    67  66  98 CALM      30.29S
DUBLIN*        CLEAR     67  66  97 CALM      30.27S
MARION*        CLOUDY    68  56  66 CALM      30.30S
HILLSVILLE*    CLEAR     66  62  87 CALM      30.28S
RICHLANDS*     FAIR      72  58  61 S5        30.28S
WISE*          CLOUDY    70  61  73 S3        30.28S
ABINGDON*      PTCLDY    70  67  92 E3        30.24S
$$

MDZ021>025-VAZ099-100-210800-
SOUTHERN MARYLAND AND THE DELMARVA PENINSULA

CITY           SKY/WX    TMP DP  RH WIND       PRES   REMARKS
PATUXENT RIVER CLEAR     68  68 100 CALM      30.18S
BAY BRIDGE APT CLEAR     73  68  83 CALM      30.18S
LEONARDTOWN    CLEAR     68  66  94 CALM      30.19F
DOVER          PTCLDY    67  67 100 S6        30.18S
GEORGETOWN     CLEAR     67  64  90 CALM      30.20S
EASTON         CLEAR    N/A N/A N/A CALM      30.22F
CAMBRIDGE      CLEAR     66  64  94 CALM      30.19S
SALISBURY      PTCLDY    66  66 100 CALM      30.19F
OCEAN CITY     CLEAR     65  65 100 CALM      30.19F FOG
WALLOPS ISLAND CLEAR     71  71 100 CALM      30.19F
ACCOMACK*        N/A     69  68  99 CALM      30.18F FOG
$$

NCZ012>017-030>032-210800-
NORTH CENTRAL AND EASTERN NORTH CAROLINA

CITY           SKY/WX    TMP DP  RH WIND       PRES   REMARKS
ROANOKE RAPIDS FOG       70  70 100 CALM      30.17F VSB 3/4
RALEIGH        PTCLDY    76  72  87 CALM      30.18F
ELIZABETH CITY CLEAR     75  75 100 CALM      30.17F FOG
AHOSKIE*       FOG       72  72 100 CALM      30.18S VSB 1/4
EDENTON*       CLEAR     76  74  94 CALM      30.18S
CURRITUCK*     CLEAR     73  71  96 CALM      30.19S
KILL DEVIL HLS CLEAR     76  76 100 CALM      30.16S
MANTEO         CLEAR     74  74  99 CALM      30.18S
CAPE HATTERAS  CLOUDY    79  79 100 NE3       30.16S
TARBORO*       NOT AVBL
GOLDSBORO      CLEAR     74  73  95 CALM      30.16F
WASHINGTON     CLOUDY    73  72  97 CALM      30.17S FOG
GREENVILLE     MOCLDY    73  73 100 CALM      30.18S
NEW BERN       PTCLDY    74  74 100 CALM      30.17S FOG
WILMINGTON     CLOUDY    76  75  97 N3        30.14S
$$

VAZ048-210800-
ELSEWHERE

CITY           SKY/WX    TMP DP  RH WIND       PRES   REMARKS
HARRISBURG PA  MOCLDY    67  64  90 E5        30.18S
BALTIMORE      MOCLDY    69  67  93 CALM      30.18S
ANNAPOLIS      CLEAR     75  74  96 CALM      30.17F
ANDREWS AFB    CLOUDY    70  66  89 CALM      30.18F
PHILADELPHIA   PTCLDY    71  66  84 CALM      30.19S
HENDERSON NC   CLEAR     71  69  92 CALM      30.19S
GREENSBORO     CLOUDY    76  70  82 S7        30.18S
ROCKY MOUNT    FOG       70  70 100 CALM      30.17S VSB 3/4
$$

VAZ100-210800-
MARINE

STATION/POSITION TIME  TEMP    WIND        PRES    WAVE   SWELL
                       AIR SEA DIR/SP/G            HT/PER HT/PER
                 (UTC) (F)     (DEG/KT/KT) (MB)    (FT/S) (FT/S)
BRANDYWINE LGT   0642          240/  8/  8 1022.5F
CAPE MAY NJ      0648          110/  2/  3 1021.6F
LEWES DE         0642          230/  4/  5 1021.9F
15NM E FENWICK I 0650   77 78  230/  4/  4 1022.8F   2/ 7   2/ 7
OCEAN-CITY-INLET 0642          310/  2/  2 1022.6F
WACHAPREAGUE VA  0648           CALM  /  1 1022.1F
THOMAS POINT MD  0700   78 81  130/  6/  7   N/A
GOOSES REEF MD   0700   80 80  180/  6/  6 1022.4    0
COVE POINT MD    0648          180/  2/  3 1022.6F
SOLOMONS ISLAND  0642           CALM  /  2   N/A
BISHOPS HEAD MD  0648          170/  2/  3 1022.1F
PINEY POINT MD   0642          190/  5/  6   N/A
POTOMAC MD       0700   79 82  190/  6/  8 1021.2    0
CAMBRIDGE MD     0642                      1023.1S
LEWISETTA VA     0648          190/  3/  4 1021.8S
RAPPAHANNOCK LGT 0648          140/  4/  4 1022.5F
STINGRAY PT      0700   80 82  190/  4/  6 1022.2    0
YORK RVR RNG VA  0648          160/  5/  6 1022.2F
YORKTOWN VA      0648          180/  1/  2 1021.5F
JAMESTOWN VA     0700      85  110/  4/  6   N/A
DOMINION TERM VA 0648          120/  4/  5 1022.0F
KIPTOPEKE VA     0642          130/  2/  2   N/A
CHES BAY BRIDGE  0648          130/  2/  4 1021.8F
CAPE HENRY VA    0648          120/  4/  4   N/A
WILLOUBY STN VA  0642          120/  5/  5 1021.9F
S CRANEY ISL VA  0648          110/  3/  5 1021.8F
CAPE HENRY BUOY  0700      81                N/A     2/ 8
1ST LANDING BUOY 0700   78 80              1021.9    1
64NM E OF VA BCH 0650   78 79   40/  6/  6 1022.5S   2/ 8   2/ 8
DUCK PIER NC     0648          100/  4/  4 1021.3F
44100 DUCK FRF   0605      81                N/A     2/ 9
44056 DUCK FRF   0700      79                N/A     2/ 8
OREGON INLET NC  0642           40/  3/  3 1021.4F
HATTERAS NC      0648           90/  2/  3 1021.3S
DIAMOND SHLS NC  0650   83 85   20/  6/  6 1021.0F   2/ 8   2/ 8
CAPE LOOKOUT NC  0700   81      50/  4/  4 1020.6F
$$




USA.gov is the U.S. government's official web portal to all federal, state and local government web resources and services.